Location: Frizzleburg
(41.0764°N, 80.4548°W)
Time: 08:02:27
(UTC+00:00)

Cosmos 1743 Rocket - Pass Details

Date: 17 November 2019
Orbit: 604 x 633 km, 82.6° (Epoch: 09 December)

Event Time Altitude Azimuth Distance (km) Brightness Sun altitude
Rises 10:57:47 0° 180° (S) 2,858 7.1 -14.0°
Reaches altitude 10° 11:00:00 10° 178° (S) 1,955 6.3 -13.6°
Maximum altitude 11:04:17 69° 96° (E) 654 3.9 -12.8°
Drops below altitude 10° 11:08:35 10° 13° (NNE) 1,961 6.1 -12.0°
Sets 11:10:49 0° 11° (N) 2,869 6.9 -11.6°
